User: anonymous   Login
Location: *
(42.0175°N, 9.4056°E)
Time: 09:50:54
(UTC+00:00)
Language:

Cosmos 2333 Rocket - Orbit

View from above orbital plane
View from above orbital plane
View from above satellite
View from above satellite

Ground track
Ground track

The orbit data is extracted from the following two-line orbital elements,

1 24298U 96051B   19292.88307089 +.00000096 +00000-0 +78431-4 0  9994
2 24298 070.8325 059.8390 0015328 340.3491 019.7036 14.12439035192245
Epoch (UTC): 19 October 2019 21:11:37
Eccentricity: 0.0015328
inclination: 70.8325°
perigee height: 840 km
apogee height: 862 km
right ascension of ascending node: 59.8390°
argument of perigee: 340.3491°
revolutions per day: 14.12439035
mean anomaly at epoch: 19.7036°
orbit number at epoch: 19224

The dashed part of the orbit path shows where the satellite is in the earth's shadow,  

DLR